#timestamp,LO_Frequency,Hit,StdDev 
1565748015.7,286046999.6,N
1565748035.5,286046999.1,N
1565748055.4,286046996.5,Y
1565748075.2,286046998.2,P
1565748095.0,286046997.0,P
1565748095.9,286046997.0,P
1565748115.8,286046997.0,Y
1565748135.6,286046999.4,P
1565748155.5,286047000.9,N
1565748175.3,286047001.2,N
1565748195.1,286046998.5,N
1565748215.9,286046998.2,N
1565748235.7,286046998.6,N
1565748255.6,286046998.5,N
1565748275.4,286046998.6,N
1565748295.2,286046999.1,N
1565748315.1,286046998.7,N
1565748316.0,286046998.7,N
1565748335.8,286047000.7,N
1565748355.6,286046996.5,Y
1565748375.5,286047000.4,P
1565748395.3,286046998.6,N
1565748415.2,286046998.3,N
1565748435.9,286047000.4,N
1565748455.7,286047002.8,Y
1565748475.6,286046999.8,P
1565748495.4,286047000.0,N
1565748515.2,286047000.2,N
1565748535.1,286047002.0,Y
1565748536.0,286047002.0,P
1565748555.8,286047003.9,P
1565748575.7,286047000.3,N
1565748595.5,286047002.3,N
1565748615.3,286046998.2,N
1565748635.2,286046999.9,N
1565748655.0,286047000.8,N
1565748655.9,286047000.8,N
1565748675.8,286047002.8,N
1565748695.6,286047000.4,N
1565748715.4,286046998.4,N
1565748735.3,286047002.4,N
1565748755.1,286047001.3,N
1565748775.8,286047002.3,N
1565748795.7,286047000.2,N
1565748815.5,286047001.7,N
1565748835.4,286047003.8,N
1565748855.2,286047003.2,N
1565748875.0,286047005.8,Y
1565748875.9,286047005.8,P
1565748895.8,286047003.5,N
1565748915.6,286047003.5,N
1565748935.4,286047002.5,N
1565748955.3,286046999.9,N
1565748975.1,286047002.6,N
1565748995.9,286047001.9,N
1565749015.7,286047003.2,N
1565749035.5,286047003.8,N
1565749055.4,286047004.2,N
1565749075.2,286047003.8,N
1565749095.0,286047005.9,Y
1565749095.9,286047005.9,P
1565749115.8,286047002.1,N
1565749135.6,286047001.4,N
1565749155.5,286047001.9,N
1565749175.3,286046999.7,N
1565749195.1,286047001.5,N
1565749215.9,286047004.2,N
1565749235.7,286047001.5,N
1565749255.6,286047001.7,N
1565749275.4,286047002.9,N
1565749295.2,286047003.8,N
1565749315.1,286047005.9,Y
1565749316.0,286047005.9,P
1565749335.8,286047000.1,N
1565749355.6,286047002.0,N
1565749375.5,286047000.1,N
1565749395.3,286047002.4,N
1565749415.2,286047000.2,N
1565749435.9,286046998.1,N
1565749455.7,286047001.1,N
1565749475.6,286047003.5,N
1565749495.4,286047002.2,N
1565749515.2,286047002.0,N
1565749535.1,286047001.7,N
1565749536.0,286047001.7,N
1565749555.8,286047005.9,Y
1565749575.7,286046999.8,P
1565749595.5,286047000.1,N
1565749615.3,286047000.5,N
1565749635.2,286047000.2,N
1565749655.9,286047001.4,N
1565749675.7,286046999.7,N
1565749695.6,286047001.5,N
1565749715.4,286047001.4,N
1565749735.2,286047001.6,N
1565749755.1,286047004.4,Y
1565749756.0,286047004.4,P
1565749775.8,286047003.4,N
1565749795.7,286047003.5,N
1565749815.5,286047002.3,N
1565749835.3,286046999.8,N
1565749855.2,286046999.9,N
1565749875.0,286047000.5,N
1565749875.9,286047000.5,N
1565749895.8,286047000.7,N
1565749915.6,286046999.7,N
1565749935.4,286047001.3,N
1565749955.3,286047002.1,N
1565749975.1,286047000.8,N
1565749995.8,286046998.4,N
1565750015.7,286047000.2,N
1565750035.5,286047002.4,N
1565750055.4,286047000.9,N
1565750075.2,286047002.6,N
1565750095.0,286047000.0,N
1565750095.9,286047000.0,N
1565750115.8,286047002.0,N
1565750135.6,286047000.8,N
1565750155.4,286046998.1,N
1565750175.3,286047000.8,N
1565750195.1,286046998.5,N
1565750215.9,286046998.1,N
1565750235.7,286047001.2,N
1565750255.5,286047000.7,N
1565750275.4,286047002.7,N
1565750295.2,286047001.9,N
1565750315.0,286047004.2,N
1565750315.9,286047004.2,N
1565750335.8,286047003.8,N
1565750355.6,286047000.1,N
1565750375.5,286047000.5,N
1565750395.3,286046999.1,N
1565750415.1,286046998.2,N
1565750435.9,286046998.1,N
1565750455.7,286047002.2,N
1565750475.5,286047003.5,N
1565750495.4,286047000.0,N
1565750515.2,286046998.2,N
1565750535.1,286046999.3,N
1565750536.0,286046999.3,N
1565750555.8,286046998.5,N
1565750575.6,286047001.1,N
1565750595.5,286046998.3,N
1565750615.3,286046999.4,N
1565750635.1,286047000.8,N
1565750655.9,286047001.0,N
1565750675.7,286046998.4,N
1565750695.6,286046999.1,N
1565750715.4,286046998.5,N
1565750735.2,286046998.4,N
1565750755.1,286046998.4,N
1565750756.0,286046998.4,N
1565750775.8,286046999.2,N
1565750795.7,286046999.2,N
1565750815.5,286046997.4,N
1565750835.3,286046996.5,N
1565750855.2,286046998.2,N
1565750875.0,286046998.5,N
1565750875.9,286046998.5,N
1565750895.8,286046999.6,N
1565750915.6,286047000.3,N
1565750935.4,286047000.0,N
1565750955.3,286047000.6,N
1565750975.1,286046998.6,N
1565750995.8,286047000.6,N
1565751015.7,286047000.4,N
1565751035.5,286047002.7,N
1565751055.4,286047002.2,N
1565751075.2,286047001.6,N
1565751095.0,286047001.4,N
1565751095.9,286047001.4,N
1565751115.8,286047005.8,Y
1565751135.6,286047005.8,P
1565751155.4,286047003.4,N
1565751175.3,286047011.9,P
1565751195.1,286047003.1,N
1565751215.9,286047003.2,N
1565751235.7,286047003.3,N
1565751255.5,286047005.2,N
1565751275.4,286047003.4,N
1565751295.2,286047005.6,N
1565751315.0,286047004.9,N
1565751315.9,286047004.9,N
1565751335.8,286047007.2,N
1565751355.6,286047005.1,N
1565751375.5,286047009.1,Y
1565751395.3,286047002.2,P
1565751415.1,286047001.7,N
1565751435.9,286047001.4,N
1565751455.7,286047004.4,Y
1565751475.6,286047000.3,P
1565751495.4,286046999.7,N
1565751515.2,286047000.2,N
1565751535.1,286047002.3,N
1565751536.0,286047002.3,N
1565751555.8,286047000.8,N
1565751575.6,286047000.0,N
1565751595.5,286047002.6,N
